Content
SEND FEEDBACK

Daily
Averages
Monthly
Summary
Switzerland

GENEVA, SWITZERLAND


Home > Europe > Switzerland
Elevation: 415 meters     Latitude: 46 15N     Longitude: 006 08E

WEATHER
 
SELECT A DAY
Number of Records: 306,285;   Date Range: 7/1/96 - 9/18/14
 
SHARE

PRINT THIS DATA

[ ← Previous Day ]
WEATHER ALMANAC - 10 MAY, 2013
[ Next Day → ]
[ °F ]   °C
Weather ElementAverageHighLow
Temperature12.8 °C15 °C (5:20 pm)10 °C (9:50 pm)
Dewpoint7.9 °C13 °C (12:20 am)2.8 °C (8:00 pm)
Humidity72.2 %100 % (12:20 am)35 % (8:00 pm)
Barometer1017.3 hPa1019.6 hPa (10:00 pm)1014.9 hPa (2:00 am)
Wind Speed5.5 km/h11.1 km/h (12:50 pm)
Weather ElementAverage
Visibility11.9 km
Wind DirectionSE (130.6 °)

Weather ElementTotal
Precipitation---
Heating Degree Days5.8 (Base 18.3)
Growing Degree Days2.5 (Base 10)
Averaged from 64 records on 10 May, 2013
WEATHER CONDITIONS BREAKOUT
WIND DIRECTION BREAKOUT
WEATHER BY HOUR - 10 MAY, 2013
[ °F ]   °C
Local TimeTemperatureDewpointHumidityBarometerVisibilityWind DirectionWind SpeedGust SpeedPrecipitationEventsConditions
12:20 AM13 °C13 °C100 %1015.2 hPa8 kmSW (220°)1.9 km/hRainRain
12:50 AM13 °C12 °C94 %1015.2 hPa10 kmSW (220°)5.6 km/hRainLight Rain
1:00 AM13.3 °C12.2 °C90 %1015.2 hPaWest (260°)5.6 km/h
1:20 AM13 °C12 °C94 %1015.2 hPa10 kmVariable3.7 km/hRainLight Rain
1:50 AM13 °C12 °C94 %1015.2 hPa10 kmWSW (250°)1.9 km/hRainLight Rain
2:00 AM13.3 °C12.2 °C90 %1014.9 hPa11.3 kmSW (230°)5.6 km/hRainLight Rain
2:20 AM13 °C13 °C100 %1015.2 hPa9 kmVariable1.9 km/hRainLight Rain
2:50 AM13 °C13 °C100 %1015.2 hPa10 kmCalmRainLight Rain
3:00 AM12.8 °C12.2 °C94 %1014.9 hPaEast (90°)1.9 km/h
3:50 AM13 °C12 °C94 %1015.2 hPa9 kmCalmRainLight Rain
4:00 AM12.8 °C11.7 °C92 %1015.2 hPaWNW (290°)5.6 km/h
4:20 AM12 °C10 °C88 %1015.2 hPa6.9 kmNorth (360°)5.6 km/hRainRain
4:50 AM11 °C10 °C94 %1015.2 hPa10 kmCalmRainLight Rain
5:20 AM11 °C10 °C94 %1015.2 hPa10 kmCalmRainLight Rain
5:50 AM11 °C11 °C100 %1016.3 hPa10 kmCalmRainLight Rain
6:20 AM11 °C11 °C100 %1016.3 hPa10 kmCalmRainLight Rain
6:50 AM11 °C11 °C100 %1016.3 hPa10 kmCalmRainLight Rain
7:20 AM12 °C11 °C94 %1017.3 hPa10 kmVariable1.9 km/hRainLight Rain
7:50 AM12 °C11 °C94 %1017.3 hPa10 kmVariable1.9 km/hMostly Cloudy
8:00 AM12.2 °C10 °C83 %1017.6 hPa30.6 kmNNW (330°)3.7 km/hRainLight Rain
8:20 AM12 °C12 °C100 %1017.3 hPa10 kmVariable3.7 km/hMostly Cloudy
8:50 AM12 °C10 °C88 %1017.3 hPa10 kmNorth (350°)7.4 km/hMostly Cloudy
9:00 AM11.7 °C9.4 °C83 %1017.9 hPaNNE (30°)7.4 km/h
9:20 AM12 °C10 °C88 %1017.3 hPa10 kmVariable5.6 km/hMostly Cloudy
9:50 AM13 °C10 °C82 %1017.3 hPa10 kmCalmMostly Cloudy
10:00 AM12.8 °C8.3 °C66 %1017.6 hPaNE (50°)3.7 km/h
10:20 AM14 °C8 °C67 %1017.9 hPa10 kmVariable1.9 km/hMostly Cloudy
10:50 AM14 °C8 °C67 %1017.9 hPa10 kmVariable5.6 km/hMostly Cloudy
11:20 AM13 °C9 °C77 %1017.9 hPa10 kmVariable1.9 km/hMostly Cloudy
11:50 AM14 °C8 °C67 %1017.9 hPa10 kmVariable3.7 km/hMostly Cloudy
12:00 PM13.3 °C6.7 °C55 %1017.9 hPaNorth7.4 km/h
12:20 PM14 °C8 °C67 %1017.9 hPa10 kmVariable5.6 km/hMostly Cloudy
12:50 PM14 °C8 °C67 %1017.9 hPa10 kmNorth (360°)11.1 km/hMostly Cloudy
1:00 PM13.9 °C6.1 °C49 %1018.3 hPaNorth (350°)9.3 km/h
1:20 PM14 °C7 °C63 %1017.9 hPa10 kmNorth (350°)9.3 km/hMostly Cloudy
1:50 PM14 °C8 °C67 %1017.9 hPa10 kmNorth (350°)9.3 km/hMostly Cloudy
2:00 PM13.3 °C6.1 °C52 %1018.6 hPa49.9 kmNorth (350°)9.3 km/hPartly Cloudy
2:20 PM13 °C7 °C67 %1017.9 hPa10 kmNorth (350°)11.1 km/hMostly Cloudy
2:50 PM13 °C7 °C67 %1017.9 hPa10 kmNorth (10°)7.4 km/hMostly Cloudy
3:00 PM13.3 °C6.1 °C52 %1018.6 hPaNorth (10°)9.3 km/h
3:20 PM14 °C7 °C63 %1019 hPa10 kmNorth (10°)11.1 km/hMostly Cloudy
3:50 PM14 °C6 °C59 %1019 hPa10 kmVariable9.3 km/hMostly Cloudy
4:00 PM13.9 °C5.6 °C47 %1018.6 hPaNorth (350°)9.3 km/h
4:20 PM14 °C6 °C59 %1017.9 hPa10 kmNNW (340°)9.3 km/hMostly Cloudy
4:50 PM14 °C5 °C55 %1017.9 hPa10 kmNorth (360°)11.1 km/hMostly Cloudy
5:20 PM15 °C5 °C51 %1017.9 hPa10 kmNorth (10°)9.3 km/hMostly Cloudy
5:50 PM15 °C5 °C51 %1017.9 hPa10 kmVariable5.6 km/hMostly Cloudy
6:00 PM15 °C4.4 °C37 %1018.3 hPaNorth (350°)7.4 km/h
6:20 PM15 °C4 °C48 %1017.9 hPa10 kmNorth (350°)7.4 km/hMostly Cloudy
6:50 PM14 °C5 °C55 %1017.9 hPa10 kmVariable7.4 km/hMostly Cloudy
7:00 PM13.9 °C3.3 °C37 %1018.3 hPaNNW (330°)7.4 km/h
7:20 PM15 °C4 °C48 %1017.9 hPa10 kmNNW (330°)9.3 km/hMostly Cloudy
7:50 PM14 °C4 °C51 %1017.9 hPa10 kmNW (320°)7.4 km/hMostly Cloudy
8:00 PM13.9 °C2.8 °C35 %1018.3 hPa49.9 kmNNW (330°)7.4 km/hMostly Cloudy
8:20 PM13 °C4 °C54 %1017.9 hPa10 kmVariable7.4 km/hScattered Clouds
8:50 PM12 °C5 °C62 %1017.9 hPa10 kmVariable5.6 km/hScattered Clouds
9:00 PM11.1 °C5 °C57 %1019 hPaNNE (30°)5.6 km/h
9:20 PM11 °C4 °C62 %1019 hPa10 kmVariable1.9 km/hScattered Clouds
9:50 PM10 °C6 °C76 %1019 hPa10 kmVariable3.7 km/hScattered Clouds
10:00 PM10.6 °C5 °C59 %1019.6 hPaENE (60°)7.4 km/h
10:20 PM11 °C5 °C67 %1019 hPa10 kmNNE (30°)7.4 km/hMostly Cloudy
10:50 PM11 °C5 °C67 %1019 hPa10 kmNorth (350°)5.6 km/hMostly Cloudy
11:20 PM11 °C5 °C67 %1019 hPa10 kmVariable3.7 km/hMostly Cloudy
11:50 PM10 °C5 °C71 %1019 hPa10 kmVariable3.7 km/hMostly Cloudy
Hourly data recorded from LSGG, located 0 kilometers away from Geneva, Switzerland







STORIES FROM OUR PARTNERS